Tracking 35275 objects as of 8-Sep-2026
HD Live streaming from Space Station
objects crossing your sky now

STARLINK-31102

Track STARLINK-31102 now!
10-day predictions
STARLINK-31102 is classified as:


NORAD ID: 58715
Int'l Code: 2024-002L
Launch date: January 3, 2024
Source: United States (US)
Launch site: AIR FORCE WESTERN TEST RANGE (AFWTR)
Your satellite tracking list
Your tracking list is empty




NASA's NSSDC Master Catalog

Two Line Element Set (TLE):
1 58715U 24002L   26250.76867986  .00001771  00000-0  63571-4 0  9998
2 58715  53.1585 101.2713 0001232  88.9887 271.1257 15.34389412149937
Source of the keplerian elements: AFSPC